TimeCST,TemperatureF,Dew PointF,Humidity,Sea Level PressureIn,VisibilityMPH,Wind Direction,Wind SpeedMPH,Gust SpeedMPH,PrecipitationIn,Events,Conditions,WindDirDegrees,DateUTC
12:53 AM,39.9,33.1,77,30.31,10.0,NNW,16.1,-,N/A,,Overcast,340,2013-12-23 06:53:00
1:53 AM,37.0,28.9,73,30.35,9.0,North,17.3,23.0,N/A,,Overcast,350,2013-12-23 07:53:00
2:53 AM,37.0,30.0,76,30.35,9.0,NNW,10.4,-,N/A,,Overcast,340,2013-12-23 08:53:00
3:53 AM,36.0,28.9,76,30.35,9.0,North,11.5,-,N/A,,Overcast,350,2013-12-23 09:53:00
4:53 AM,36.0,28.0,73,30.37,10.0,North,13.8,-,N/A,,Overcast,350,2013-12-23 10:53:00
5:53 AM,36.0,28.0,73,30.39,9.0,NNE,13.8,18.4,N/A,,Overcast,20,2013-12-23 11:53:00
6:53 AM,35.1,27.0,72,30.42,9.0,NNE,18.4,24.2,N/A,,Overcast,20,2013-12-23 12:53:00
7:53 AM,36.0,28.0,73,30.45,8.0,North,10.4,-,N/A,,Overcast,10,2013-12-23 13:53:00
8:53 AM,36.0,27.0,70,30.48,9.0,North,15.0,-,N/A,,Overcast,10,2013-12-23 14:53:00
9:53 AM,37.0,27.0,67,30.52,10.0,NNE,12.7,-,N/A,,Overcast,20,2013-12-23 15:53:00
10:53 AM,37.0,27.0,67,30.53,9.0,North,15.0,-,N/A,,Overcast,360,2013-12-23 16:53:00
11:53 AM,37.9,28.0,68,30.51,9.0,North,9.2,-,N/A,,Overcast,10,2013-12-23 17:53:00
12:53 PM,37.9,28.0,68,30.49,10.0,North,10.4,-,N/A,,Overcast,10,2013-12-23 18:53:00
1:53 PM,39.9,28.9,65,30.48,10.0,North,11.5,-,N/A,,Mostly Cloudy,10,2013-12-23 19:53:00
2:53 PM,39.0,28.0,65,30.49,10.0,North,11.5,-,N/A,,Mostly Cloudy,10,2013-12-23 20:53:00
3:03 PM,39.2,28.4,65,30.46,10.0,North,10.4,-,N/A,,Scattered Clouds,350,2013-12-23 21:03:00
3:11 PM,39.2,28.4,65,30.46,10.0,North,11.5,-,N/A,,Mostly Cloudy,350,2013-12-23 21:11:00
3:49 PM,39.2,28.4,65,30.47,10.0,North,11.5,-,N/A,,Scattered Clouds,360,2013-12-23 21:49:00
3:53 PM,39.0,28.0,65,30.50,10.0,North,10.4,-,N/A,,Partly Cloudy,10,2013-12-23 21:53:00
4:53 PM,37.0,28.0,70,30.51,10.0,North,10.4,-,N/A,,Clear,10,2013-12-23 22:53:00
5:53 PM,34.0,28.0,79,30.53,10.0,North,5.8,-,N/A,,Clear,360,2013-12-23 23:53:00
6:53 PM,34.0,28.0,79,30.53,10.0,NNE,4.6,-,N/A,,Clear,20,2013-12-24 00:53:00
7:53 PM,32.0,28.0,85,30.55,10.0,North,4.6,-,N/A,,Clear,360,2013-12-24 01:53:00
8:53 PM,30.9,27.0,85,30.56,10.0,North,4.6,-,N/A,,Clear,360,2013-12-24 02:53:00
9:53 PM,33.1,28.0,82,30.57,10.0,NNW,3.5,-,N/A,,Clear,340,2013-12-24 03:53:00
10:53 PM,30.9,27.0,85,30.56,10.0,Calm,Calm,-,N/A,,Clear,0,2013-12-24 04:53:00
11:53 PM,30.0,28.0,92,30.56,10.0,Calm,Calm,-,N/A,,Clear,0,2013-12-24 05:53:00